Flag for USA

Past Weather in 40°25'54.1"N, 74°24'17.9"W, USA — Yesterday and Last 2 Weeks

Now
67 °F

Low clouds.


Feels Like: 67 °F
Forecast: 77 / 66 °F
Wind: N/A

Location: New York City - Central Park

Current Time: May 29, 2020 at 4:12:40 am

Latest Report: May 29, 2020 at 3:14 am


Visibility: 7 mi

Pressure: 30.08 "Hg

Humidity: 90%

Dew Point: 64 °F

Location of 40°25'54.1"N, 74°24'17.9"WLocation

Past Weather in 40°25'54.1"N, 74°24'17.9"W — Graph

°F

40°25'54.1"N, 74°24'17.9"W Temperature Yesterday

Maximum temperature yesterday: 75 °F (at 12:51 pm)
Minimum temperature yesterday: 63 °F (at 12:51 am)
Average temperature yesterday: 69 °F

High & Low Weather Summary for the Past Weeks

 TemperatureHumidityPressure
High84 °F (May 15, 3:51 pm)97% (May 22, 8:51 pm)30.46 "Hg (May 22, 8:51 pm)
Low46 °F (May 21, 4:51 am)22% (May 14, 12:51 pm)29.79 "Hg (May 15, 8:51 pm)
Average63 °F68%30.18 "Hg
* Reported May 14 2:51 am — May 29 2:51 am, 40°25'54.1"N, 74°24'17.9"W. Weather by CustomWeather, © 2020

Note: Actual official high and low records may vary slightly from our data, if they occured in-between our weather recording intervals... More about our weather records

40°25'54.1"N, 74°24'17.9"W Weather History for the Previous 24 Hours

Scroll right to see more
 ConditionsComfort  
Time TempWeatherWind HumidityBarometerVisibility
2:51 am
Fri, May 29
67 °FLow clouds.N/A90%30.06 "Hg7 mi
1:51 am67 °FLow clouds.N/A93%30.05 "Hg8 mi
12:51 am67 °FLow clouds.N/A93%30.06 "Hg9 mi
12:26 am67 °FLow clouds.N/A90%30.09 "Hg8 mi
11:51 pm
Thu, May 28
66 °FLow clouds.N/A93%30.06 "Hg8 mi
10:51 pm66 °FLow clouds.N/A93%30.07 "Hg7 mi
9:51 pm67 °FLow clouds.N/A90%30.08 "Hg9 mi
8:51 pm67 °FLow clouds.N/A93%30.08 "Hg9 mi
7:51 pm69 °FLow clouds.N/A90%30.08 "Hg8 mi
7:08 pm70 °FLow clouds.N/A87%30.11 "Hg8 mi
6:51 pm71 °FPartly sunny.N/A84%30.08 "Hg8 mi
5:51 pm72 °FOvercast.N/A81%30.09 "Hg10 mi
4:51 pm71 °FMostly cloudy.N/A84%30.11 "Hg9 mi
3:51 pm73 °FMostly cloudy.N/A81%30.11 "Hg10 mi
2:51 pm74 °FMostly cloudy.N/A79%30.12 "Hg10 mi
2:30 pm73 °FCloudy.N/A81%30.16 "Hg10 mi
1:51 pm74 °FOvercast.N/A79%30.14 "Hg8 mi
12:51 pm75 °FMostly cloudy.N/A76%30.16 "Hg10 mi
11:51 am74 °FOvercast.N/A76%30.17 "Hg10 mi
10:51 am72 °FOvercast.N/A81%30.18 "Hg10 mi
9:51 am70 °FOvercast.N/A84%30.19 "Hg10 mi
9:36 am69 °FOvercast.N/A87%30.23 "Hg10 mi
8:51 am69 °FLow clouds.N/A87%30.21 "Hg9 mi
8:21 am68 °FOvercast.N/A87%30.24 "Hg8 mi
7:51 am68 °FMostly cloudy.N/A87%30.20 "Hg8 mi
7:30 am67 °FMostly cloudy.N/A90%30.23 "Hg7 mi
6:59 am66 °FFog.N/A93%30.23 "Hg5 mi
5:51 am66 °FMostly cloudy.N/A93%30.20 "Hg9 mi
4:51 am66 °FLow clouds.N/A87%30.19 "Hg10 mi
4:22 am65 °FMostly cloudy.N/A91%30.22 "Hg10 mi
Weather by CustomWeather, © 2020

See weather overview

Advertising